Terminal Aerodrome Forecast
Issued by NWS

Home | Current Version | Previous Version | Text Only | Print | Product List | Glossary On
Versions: 1 2 3 4 5 6 7 8 9 10 11 12 13 14 15
000
FTUS42 KGSP 301938 AAA
TAFGMU
TAF AMD
KGMU 301938Z 3020/0118 23012KT P6SM VCSH SCT050 SCT100
      TEMPO 3020/3022 6SM SHRA SCT035 BKN050
     FM010000 24006KT 6SM SHRA BKN060
     FM010100 23006KT P6SM BKN060
     FM010600 24007KT P6SM SCT060
     FM011600 22007KT P6SM SCT100 PROB30 0116/0117 4SM TSRA
      BKN040CB=

USA.gov is the U.S. government's official web portal to all federal, state and local government web resources and services.